Location: Hohe Wand Waldeggerhaus
(47.8500°N, 16.0440°E)
Time: 10:51:24
(UTC+02:00)

STARLINK-2688 - Pass Details

Date: 24 June 2021
Orbit: 546 x 548 km, 53.1° (Epoch: 25 July)

Event Time Altitude Azimuth Distance (km) Brightness Sun altitude
Exits shadow 03:57:37 - 203° (SSW) 1,855 5.7 -8.2°
Reaches altitude 10° 03:57:45 10° 202° (SSW) 1,809 5.7 -8.2°
Maximum altitude 04:01:25 32° 139° (SE) 949 4.8 -7.8°
Drops below altitude 10° 04:05:07 10° 75° (ENE) 1,821 7.3 -7.3°
Sets 04:07:31 0° 66° (ENE) 2,718 8.6 -7.1°
